WetterOnline ( http://www.wetteronline.de )

Wetter aktuell Gera

Aktuelles Wetter: Gera/Leumnitz (311m)

6-stündlich | Neueste Meldungen
Ortszeit Temperatur Wetter
Fr, 20.04. 20:00 24.3° C leicht bewölkt
Fr, 20.04. 14:00 24.8° C leicht bewölkt
Fr, 20.04. 8:00 12.0° C leicht bewölkt
Fr, 20.04. 2:00 12.6° C wolkig
Do, 19.04. 20:00 19.5° C wolkig
Do, 19.04. 14:00 22.1° C leicht bewölkt
Do, 19.04. 8:00 9.5° C leicht bewölkt
Do, 19.04. 2:00 11.2° C wolkenlos
Ortszeit Temperatur Wetter
Sa, 21.04. 1:30 13.8° C wolkig
Sa, 21.04. 1:20 13.8° C wolkig
Sa, 21.04. 1:10 14.0° C wolkig
Sa, 21.04. 1:00 15.3° C wolkig
Sa, 21.04. 0:50 15.3° C wolkig
Sa, 21.04. 0:40 15.3° C wolkig
Sa, 21.04. 0:30 15.3° C leicht bewölkt
Sa, 21.04. 0:00 17.2° C leicht bewölkt
Fr, 20.04. 23:30 17.4° C wolkenlos
Fr, 20.04. 23:00 18.6° C leicht bewölkt
Fr, 20.04. 22:30 19.2° C wolkig
Ortszeit Relative Feuchte Sichtweite
Fr, 20.04. 20:00 35% 50 km
Fr, 20.04. 14:00 37% 35 km
Fr, 20.04. 8:00 81% 14 km
Fr, 20.04. 2:00 77% 12 km
Do, 19.04. 20:00 55% 23 km
Do, 19.04. 14:00 47% 12 km
Do, 19.04. 8:00 83% 14 km
Do, 19.04. 2:00 78% 16 km
Ortszeit Relative Feuchte Sichtweite
Sa, 21.04. 1:30 76% 25 km
Sa, 21.04. 1:20 76% -
Sa, 21.04. 1:10 76% -
Sa, 21.04. 1:00 71% 23 km
Sa, 21.04. 0:50 71% -
Sa, 21.04. 0:40 71% -
Sa, 21.04. 0:30 74% 21 km
Sa, 21.04. 0:00 66% 29 km
Fr, 20.04. 23:30 68% 24 km
Fr, 20.04. 23:00 65% 26 km
Fr, 20.04. 22:30 61% 30 km
Ortszeit Niederschlagsmenge Niederschlagsart
Fr, 20.04. 20:00 0.0 l/m2 in 12 Std. -
Fr, 20.04. 14:00 0.0 l/m2 in 6 Std. -
Fr, 20.04. 8:00 0.0 l/m2 in 12 Std. -
Fr, 20.04. 2:00 0.0 l/m2 in 6 Std. -
Do, 19.04. 20:00 0.0 l/m2 in 12 Std. -
Do, 19.04. 14:00 0.0 l/m2 in 6 Std. -
Do, 19.04. 8:00 0.0 l/m2 in 12 Std. -
Do, 19.04. 2:00 0.0 l/m2 in 6 Std. -
Ortszeit Niederschlagsmenge Niederschlagsart
Sa, 21.04. 1:30 0.0 l/m2 in 1 Std. -
Sa, 21.04. 1:20 keine Meldung -
Sa, 21.04. 1:10 keine Meldung -
Sa, 21.04. 1:00 0.0 l/m2 in 1 Std. -
Sa, 21.04. 0:50 keine Meldung -
Sa, 21.04. 0:40 keine Meldung -
Sa, 21.04. 0:30 0.0 l/m2 in 1 Std. -
Sa, 21.04. 0:00 0.0 l/m2 in 1 Std. -
Fr, 20.04. 23:30 0.0 l/m2 in 1 Std. -
Fr, 20.04. 23:00 0.0 l/m2 in 1 Std. -
Fr, 20.04. 22:30 0.0 l/m2 in 1 Std. -
Ortszeit Stärke Spitze Richtung
km/h Bft. km/h Grad Sektor
Fr, 20.04. 20:00 9 2 24 180° S
Fr, 20.04. 14:00 7 2 25 170° S
Fr, 20.04. 8:00 9 2 15 200° S
Fr, 20.04. 2:00 6 1 22 190° S
Do, 19.04. 20:00 14 3 29 60° NO
Do, 19.04. 14:00 13 3 20 80° O
Do, 19.04. 8:00 7 2 14 180° S
Do, 19.04. 2:00 4 1 11 200° S
Ortszeit Stärke Spitze Richtung
km/h Bft. km/h Grad Sektor
Sa, 21.04. 1:30 14 3 18 190° S
Sa, 21.04. 1:20 14 3 - 190° S
Sa, 21.04. 1:10 14 3 - 190° S
Sa, 21.04. 1:00 13 3 15 180° S
Sa, 21.04. 0:50 13 3 - 180° S
Sa, 21.04. 0:40 13 3 - 180° S
Sa, 21.04. 0:30 9 2 11 180° S
Sa, 21.04. 0:00 0 0 7 - -
Fr, 20.04. 23:30 7 2 7 200° S
Fr, 20.04. 23:00 4 1 7 270° W
Fr, 20.04. 22:30 6 1 9 310° NW
Ortszeit Untergrenze Bedeckung Gattung
total tief tief mittel hoch
Fr, 20.04. 20:00 10500 m 7/8 0/8 - - -
Fr, 20.04. 14:00 9000 m 8/8 0/8 - - -
Fr, 20.04. 8:00 10500 m 7/8 0/8 - - -
Fr, 20.04. 2:00 9000 m 8/8 0/8 - - -
Do, 19.04. 20:00 10500 m 8/8 0/8 - - -
Do, 19.04. 14:00 10500 m 7/8 0/8 - - -
Do, 19.04. 8:00 10500 m 5/8 0/8 - - -
Do, 19.04. 2:00 - 0/8 0/8 - - -
Ortszeit Bedeckungsgrad in Achtel und Wolkenuntergrenze
Sa, 21.04. 1:30 8(10500m) 8(12000m)
Sa, 21.04. 1:20 8(10500m) 8(12000m)
Sa, 21.04. 1:10 8(10500m) 8(12000m)
Sa, 21.04. 1:00 8(10500m) 8(12000m)
Sa, 21.04. 0:50 8(10500m) 8(12000m)
Sa, 21.04. 0:40 8(10500m) 8(12000m)
Sa, 21.04. 0:30 6(10500m)
Sa, 21.04. 0:00 3(12000m) 3(12000m)
Fr, 20.04. 23:30 4(12000m)
Fr, 20.04. 23:00 2(3300m) 2(3300m)
Fr, 20.04. 22:30 2(3600m) 4(10500m) 9
Ortszeit Luftdruck NN (hPa) Tendenz (hPa in 3 Std.)
Fr, 20.04. 20:00 1019 - 1,6
Fr, 20.04. 14:00 1023 - 1,3
Fr, 20.04. 8:00 1027 - 0,1
Fr, 20.04. 2:00 1028 - 0,6
Do, 19.04. 20:00 1028 - 0,6
Do, 19.04. 14:00 1030 - 1,0
Do, 19.04. 8:00 1032 - 0,3
Do, 19.04. 2:00 1033 + 0,2
Ortszeit Luftdruck NN (hPa) Tendenz (hPa in 3 Std.)
Sa, 21.04. 1:30 1020 - 0,8
Sa, 21.04. 1:20 1020 keine Meldung
Sa, 21.04. 1:10 1020 keine Meldung
Sa, 21.04. 1:00 1020 - 0,4
Sa, 21.04. 0:50 1020 keine Meldung
Sa, 21.04. 0:40 1020 keine Meldung
Sa, 21.04. 0:30 1020 - 0,3
Sa, 21.04. 0:00 1020 - 0,3
Fr, 20.04. 23:30 1020 + 0,1
Fr, 20.04. 23:00 1020 + 0,2
Fr, 20.04. 22:30 1020 + 0,3
Ortszeit Schneehöhe (cm)
Fr, 20.04. 20:00 -
Fr, 20.04. 14:00 0
Fr, 20.04. 8:00 0
Fr, 20.04. 2:00 0
Do, 19.04. 20:00 0
Do, 19.04. 14:00 0
Do, 19.04. 8:00 0
Do, 19.04. 2:00 0
Ortszeit Schneehöhe (cm)
Sa, 21.04. 1:30 -
Sa, 21.04. 1:20 -
Sa, 21.04. 1:10 -
Sa, 21.04. 1:00 -
Sa, 21.04. 0:50 -
Sa, 21.04. 0:40 -
Sa, 21.04. 0:30 -
Sa, 21.04. 0:00 -
Fr, 20.04. 23:30 -
Fr, 20.04. 23:00 -
Fr, 20.04. 22:30 -
Link zu dieser Seite / Seite empfehlen

Das Wetter in ...